Snowfall_Accumulation
nan nan nan nan nan nan nan nan nan nan nan nan nan nan nan nan nan 0.0 0.0 0.0 0.0 0.0 0.0 0.0 0.0 0.0 0.0 0.0 0.1 0.0 0.0 0.0 0.0 0.2 0.2 0.0 0.0 0.0 0.0 0.0 0.0 0.0 0.0 0.2 0.2 0.5 2.3 0.0 0.0 0.0 0.0 0.0 0.0 0.0
nan nan nan nan nan nan nan nan nan nan nan nan nan nan nan nan nan nan 0.0 0.0 0.0 0.0 0.1 0.0 0.0 0.0 0.0 0.0 0.0 0.0 0.0 0.0 0.0 0.7 1.3 0.3 0.3 0.2 0.1 0.1 0.0 0.0 0.0 0.0 0.0 0.0 0.0 0.0 0.0 0.0 0.0 0.0 0.0 0.0
nan nan nan nan nan nan nan nan nan nan nan nan nan nan nan nan nan nan 0.0 0.0 0.0 0.0 0.0 0.0 0.0 0.0 0.0 0.0 0.0 0.2 0.0 0.0 0.0 0.0 0.0 0.1 0.5 0.2 0.4 0.0 0.0 0.0 0.0 0.0 0.0 0.0 0.0 0.0 0.0 0.0 0.0 0.0 0.0 0.0
nan nan nan nan nan nan nan nan nan nan nan nan nan nan nan nan nan nan 0.0 0.0 0.0 0.0 1.8 0.0 0.0 0.0 0.0 0.0 0.0 0.0 0.0 0.0 0.0 0.0 0.1 0.3 0.7 0.0 0.0 0.0 0.0 0.0 0.0 0.0 0.0 0.0 0.0 0.0 0.0 0.0 0.0 0.0 0.0 0.0
nan nan nan nan nan nan nan nan nan nan nan nan nan nan nan nan nan nan 0.0 0.0 0.0 0.1 1.1 0.1 0.0 0.0 0.0 0.0 0.0 0.0 0.0 0.0 0.0 0.1 0.7 1.5 0.0 0.2 0.0 0.0 0.0 0.0 0.0 0.0 0.0 0.0 0.0 0.0 0.0 0.0 0.0 0.0 0.0 0.0
nan nan nan nan nan nan nan nan nan nan nan nan nan nan nan nan nan 0.0 0.1 0.0 0.0 0.0 1.3 4.0 0.0 0.0 0.0 0.0 0.0 0.0 0.0 0.0 0.0 0.1 0.6 0.1 0.0 0.2 1.6 0.1 0.0 0.0 0.0 0.0 0.0 0.0 0.0 0.0 0.0 0.0 0.0 0.0 0.0 0.0
nan nan nan nan nan nan nan nan nan nan nan nan nan nan nan nan 0.0 0.0 0.1 0.0 nan 0.0 0.7 8.0 3.2 0.0 0.0 0.0 0.0 0.0 0.0 0.0 0.1 0.2 1.1 0.1 0.2 0.3 0.7 1.0 0.0 0.0 0.0 0.0 0.0 0.0 0.0 0.0 0.0 0.0 0.0 0.0 0.0 0.0
nan nan nan nan nan nan nan nan nan nan nan nan nan nan nan nan nan 0.0 0.0 nan nan 0.1 0.8 10.6 5.3 1.2 0.0 0.2 0.6 0.0 0.0 0.0 0.7 0.4 0.3 0.4 0.2 0.6 2.9 0.0 0.0 0.0 0.0 0.0 0.0 0.0 0.0 0.0 0.0 0.0 0.0 0.0 0.0 0.0
nan nan nan nan nan nan nan nan nan nan nan nan nan nan 0.0 0.0 0.0 0.0 nan nan 0.0 0.3 6.2 4.2 4.2 5.8 0.1 0.1 0.1 0.2 0.0 2.9 0.1 0.9 0.1 0.1 0.4 5.4 0.0 0.0 0.0 0.0 0.0 0.0 0.0 0.0 0.0 0.0 0.0 0.0 0.0 0.0 0.0 0.0
nan nan nan nan nan nan nan nan nan nan nan nan 0.0 0.1 1.6 0.0 nan nan 0.0 0.9 3.4 4.0 4.4 3.6 0.4 2.8 0.7 1.0 1.6 1.1 1.2 2.9 9.0 2.3 0.1 3.2 0.6 0.0 0.0 0.0 0.0 0.0 0.0 0.0 0.5 0.3 0.0 0.1 0.0 0.0 0.0 0.0 0.0 0.0
nan nan nan nan nan nan nan nan nan nan nan 0.8 4.3 4.1 0.3 nan 0.1 0.3 7.6 12.0 7.9 10.3 1.7 1.3 0.4 2.3 0.1 4.0 3.3 0.6 7.5 7.5 12.0 2.0 1.3 3.0 2.1 0.1 0.0 0.0 0.0 0.0 0.0 0.0 0.0 0.0 0.0 0.0 0.0 0.0 0.0 0.0 0.0 0.0
nan nan nan nan nan nan nan nan nan 0.0 1.3 1.6 1.5 0.3 0.8 4.3 10.1 14.4 14.8 6.5 4.8 5.3 4.3 3.0 1.3 0.6 2.2 0.4 4.9 7.8 7.4 6.7 9.8 0.8 6.3 4.2 0.6 0.1 0.0 0.0 0.0 0.0 0.0 0.0 0.0 0.0 0.0 0.0 0.0 0.0 0.0 0.3 0.1 0.1
nan nan nan nan nan nan nan nan nan nan nan 0.6 4.2 11.7 13.1 18.3 49.3 21.6 19.1 11.8 11.6 3.1 4.1 1.8 4.3 1.7 5.1 2.4 7.9 6.3 12.3 9.8 1.3 10.9 3.6 1.4 0.4 0.0 0.0 0.1 0.0 0.0 0.0 0.0 0.0 0.0 0.0 0.0 0.0 0.0 0.0 0.0 0.0 0.0
nan nan nan nan nan nan nan nan nan 0.0 0.0 6.5 16.9 48.1 17.8 19.4 7.4 5.8 3.5 3.3 2.1 2.7 3.1 2.7 4.1 5.1 5.0 9.9 5.1 15.1 4.7 2.6 16.2 11.6 5.2 1.6 0.6 0.4 0.1 0.1 0.1 0.4 0.1 0.2 1.9 1.2 0.4 0.3 0.0 0.0 0.0 0.0 0.0 0.0
nan nan nan nan nan nan nan nan nan 0.0 0.5 15.7 12.2 32.4 15.4 3.2 3.7 4.4 4.2 3.8 3.7 3.4 6.4 7.6 5.8 4.7 9.3 13.9 4.8 5.9 12.0 15.4 7.0 6.2 3.3 2.7 2.7 2.1 2.2 1.7 1.3 1.3 1.6 1.9 1.6 2.9 3.6 2.0 0.6 0.3 0.2 0.1 0.0 0.0
nan nan 0.0 nan nan nan nan nan 0.0 0.0 4.4 13.3 15.1 13.9 1.7 5.0 7.6 4.9 5.7 5.6 3.2 3.9 4.3 7.3 10.8 14.5 11.4 9.5 13.0 11.1 13.8 9.5 6.5 6.2 5.2 4.4 3.8 3.5 4.0 3.5 3.4 3.1 3.7 4.3 3.0 3.9 2.9 3.6 3.1 2.3 1.3 1.7 0.7 0.2
nan 0.1 nan nan nan nan nan 0.1 0.8 10.1 15.9 20.4 21.7 2.2 3.6 4.2 4.1 3.0 2.5 2.6 3.0 5.3 8.9 9.4 16.3 12.4 8.8 14.5 11.6 7.4 12.3 6.6 5.9 4.7 3.6 3.6 3.2 3.6 3.6 3.0 3.2 3.4 3.4 3.6 4.5 4.6 5.0 5.1 5.5 5.2 3.8 4.5 3.8 4.0
0.1 0.0 nan nan nan nan 0.8 2.0 11.5 20.1 28.7 9.5 9.2 4.0 1.6 1.2 2.0 1.4 2.2 2.6 4.2 4.4 6.1 11.6 6.2 13.6 12.6 10.4 7.6 8.1 6.4 5.1 3.3 2.8 3.1 3.3 3.1 3.0 2.8 3.2 3.2 2.9 2.8 3.3 3.4 4.4 5.3 5.0 4.3 4.6 3.5 3.6 3.7 3.9
0.2 0.0 nan nan 0.0 1.6 13.2 21.3 11.1 27.5 16.1 6.3 3.6 2.0 1.1 0.8 0.5 0.8 1.6 2.0 3.4 3.7 6.0 10.9 14.1 13.7 4.8 6.2 6.8 7.4 5.8 2.7 2.7 3.1 3.0 2.7 2.8 2.9 3.5 3.7 3.6 3.6 5.0 4.7 2.9 4.5 3.7 3.1 4.1 3.2 3.3 2.3 2.5 3.1
nan nan nan nan nan 12.4 33.6 27.7 8.7 12.4 17.8 8.5 3.9 4.8 2.4 1.9 1.1 1.4 2.4 3.3 4.6 9.0 12.3 19.5 9.0 6.6 6.3 6.9 4.4 4.1 3.5 2.5 1.6 1.6 2.1 1.6 1.6 1.2 1.8 2.2 2.9 3.3 3.2 2.3 2.8 nan 2.3 2.1 2.0 2.2 2.4 2.9 2.3 2.6
nan nan nan 0.3 5.3 5.8 10.7 18.3 16.7 11.1 9.9 7.5 8.3 4.3 6.8 5.2 7.3 10.7 10.8 4.5 12.0 17.1 15.0 7.0 6.9 7.0 5.8 5.1 3.5 2.5 2.8 2.2 2.0 1.2 1.4 2.0 1.6 1.4 1.0 1.3 0.7 0.5 0.4 1.0 0.8 1.1 0.8 1.1 1.7 0.9 0.7 0.7 1.0 0.8
2.4 nan 6.0 4.0 18.2 24.7 22.3 9.4 12.8 8.2 12.3 11.1 9.5 7.4 15.5 18.5 16.3 16.1 8.5 19.7 20.0 9.4 6.1 6.8 7.6 5.9 4.5 3.6 4.2 3.0 3.1 1.8 1.5 1.2 nan 0.6 0.5 0.4 0.5 0.5 0.9 2.4 2.2 2.5 0.5 0.2 0.0 0.0 0.0 0.2 0.4 0.3 0.3 0.3
nan 5.4 13.2 15.7 27.8 31.1 32.6 6.8 14.2 12.6 13.8 17.8 15.0 14.4 17.6 19.4 13.5 7.3 17.7 11.7 8.4 4.9 5.6 4.9 3.8 4.2 4.0 3.7 3.4 2.7 1.7 1.4 1.2 0.4 0.1 0.1 0.1 0.4 0.7 0.4 0.6 3.0 3.7 1.1 0.5 0.7 1.2 nan 0.0 0.1 0.0 0.1 0.6 1.0
nan 21.4 33.6 32.5 27.6 30.9 11.9 21.3 9.0 11.0 12.0 12.3 16.0 14.4 15.5 12.6 8.9 18.4 16.2 8.8 4.7 3.9 4.6 4.1 2.9 3.4 3.5 3.1 3.1 2.4 1.3 0.6 0.4 0.3 0.1 0.4 0.8 0.2 0.1 0.2 0.1 0.3 0.8 0.5 0.7 0.9 0.7 0.0 nan 0.3 0.3 1.9 2.2 2.2
34.7 52.8 31.0 47.7 21.0 19.2 13.3 11.2 14.4 10.5 12.9 11.4 12.8 13.2 14.8 10.9 16.0 18.1 11.8 10.4 6.5 4.6 4.8 3.5 2.4 2.4 2.0 2.0 1.7 1.1 0.4 0.5 0.6 0.9 0.6 0.4 0.5 0.7 1.8 0.9 0.3 0.5 0.6 3.4 2.8 2.2 2.1 1.6 1.5 2.1 2.4 3.3 4.4 5.2
55.9 25.9 35.7 13.9 17.8 10.4 7.9 10.0 9.6 10.3 8.8 12.3 12.7 11.6 13.7 12.8 17.7 20.0 7.5 8.4 4.3 4.6 3.9 2.6 1.7 1.0 0.8 0.8 0.9 0.8 0.5 0.4 0.7 1.2 1.1 0.9 0.9 3.4 5.7 3.3 3.2 1.3 0.9 1.3 3.0 4.9 4.2 2.7 3.5 3.7 4.1 3.7 nan 4.6
42.5 27.2 9.6 1.7 3.3 2.6 4.3 3.9 3.8 7.3 11.9 12.6 9.9 9.4 11.9 20.7 14.8 6.4 4.2 5.1 4.3 3.7 1.6 1.2 1.3 1.2 0.9 0.8 0.5 0.6 0.6 1.4 1.9 1.5 0.8 1.3 1.3 0.9 2.7 5.8 4.8 1.4 1.2 2.6 3.2 3.6 4.6 4.0 4.1 4.8 5.8 6.1 5.7 6.5
11.2 8.4 8.1 12.6 5.7 5.0 4.4 4.4 6.5 9.6 8.6 5.0 5.8 11.5 12.2 9.2 7.7 5.5 5.0 6.4 6.2 4.6 5.4 3.3 2.1 1.5 2.0 1.9 1.7 1.0 2.6 3.0 3.6 4.2 4.0 2.8 2.8 3.1 3.6 2.3 2.6 nan 2.5 3.0 3.6 4.4 5.2 5.3 6.9 6.6 6.5 7.9 6.8 5.0
7.8 5.7 6.8 12.7 8.4 8.3 10.2 9.1 6.8 3.8 1.1 5.4 7.3 5.9 5.3 4.8 6.9 6.9 5.2 4.4 5.7 6.7 6.4 5.0 4.9 6.3 5.8 4.6 4.4 5.7 5.3 5.5 6.3 5.5 3.9 4.5 4.3 4.8 5.4 5.5 6.8 6.7 5.7 6.4 nan nan 6.7 9.4 10.0 11.2 10.3 8.6 7.4 8.3
6.4 7.4 6.0 7.0 7.5 9.2 9.3 5.6 9.8 8.1 3.5 2.9 2.8 4.4 4.3 6.3 8.5 6.2 5.8 5.7 7.6 9.7 7.5 8.0 7.5 12.1 9.6 7.5 8.3 6.3 5.4 5.8 6.0 4.7 7.6 6.6 5.6 4.8 9.2 8.8 8.1 8.0 7.8 7.9 7.8 8.0 nan 9.3 nan 9.6 9.7 8.4 8.0 8.0
4.9 8.8 7.4 6.9 7.8 10.9 8.9 4.3 7.5 1.8 6.3 10.6 8.5 8.6 7.6 8.7 6.3 4.7 3.9 3.5 5.1 8.9 10.0 11.9 11.3 11.2 8.7 8.3 9.7 8.7 7.0 5.4 8.2 8.0 6.7 6.9 6.8 7.8 8.5 8.5 8.3 8.9 8.5 8.4 8.1 7.9 8.6 8.4 9.0 10.0 8.2 9.0 7.8 8.1
6.8 9.8 9.3 6.6 11.4 12.9 9.7 12.4 13.1 11.9 12.3 11.9 12.3 12.8 11.2 9.8 7.6 5.6 3.9 9.8 9.4 8.2 nan 7.3 5.7 4.2 3.8 4.1 4.0 4.6 nan 4.3 6.1 6.5 8.5 6.9 6.4 6.8 7.7 8.9 10.0 9.5 9.4 9.1 9.3 8.8 9.7 11.7 10.4 10.0 8.6 10.1 9.8 8.3
15.6 12.9 14.5 9.9 16.2 13.7 12.7 13.3 7.2 16.8 12.8 12.7 9.6 9.7 11.3 6.8 5.5 4.9 5.2 6.3 3.1 3.0 3.7 4.0 3.8 4.0 4.6 6.1 4.8 4.0 nan 5.3 8.7 nan nan nan nan nan 8.4 7.9 8.1 8.5 8.3 8.3 8.9 9.6 10.0 10.4 11.3 9.3 9.7 10.7 10.7 9.6
Water_Equivalent
nan nan nan nan nan nan nan nan nan nan nan nan nan nan nan nan nan 0.00 0.00 0.00 0.00 0.00 0.00 0.00 0.00 0.00 0.00 0.00 0.01 0.00 0.00 0.00 0.00 0.03 0.04 0.00 0.00 0.00 0.00 0.00 0.00 0.00 0.02 0.03 0.02 0.10 0.42 0.00 0.00 0.00 0.00 0.00 0.00 0.00
nan nan nan nan nan nan nan nan nan nan nan nan nan nan nan nan nan nan 0.00 0.00 0.00 0.00 0.02 0.00 0.00 0.00 0.00 0.00 0.00 0.00 0.00 0.00 0.00 0.12 0.20 0.05 0.05 0.02 0.01 0.02 0.00 0.00 0.00 0.00 0.00 0.00 0.00 0.00 0.00 0.00 0.00 0.00 0.00 0.00
nan nan nan nan nan nan nan nan nan nan nan nan nan nan nan nan nan nan 0.00 0.00 0.00 0.00 0.00 0.00 0.00 0.00 0.00 0.00 0.00 0.04 0.00 0.00 0.00 0.00 0.00 0.03 0.07 0.03 0.04 0.00 0.00 0.00 0.00 0.00 0.00 0.00 0.00 0.00 0.00 0.00 0.00 0.00 0.00 0.00
nan nan nan nan nan nan nan nan nan nan nan nan nan nan nan nan nan nan 0.00 0.00 0.00 0.00 0.37 0.01 0.00 0.00 0.00 0.00 0.00 0.00 0.00 0.00 0.00 0.01 0.02 0.05 0.10 0.00 0.01 0.00 0.01 0.00 0.00 0.00 0.00 0.00 0.00 0.00 0.00 0.00 0.00 0.00 0.00 0.00
nan nan nan nan nan nan nan nan nan nan nan nan nan nan nan nan nan nan 0.00 0.00 0.00 0.04 0.27 0.02 0.00 0.00 0.00 0.00 0.00 0.00 0.00 0.00 0.00 0.04 0.15 0.22 0.00 0.03 0.00 0.00 0.00 0.00 0.00 0.00 0.00 0.00 0.00 0.00 0.00 0.00 0.00 0.00 0.00 0.00
nan nan nan nan nan nan nan nan nan nan nan nan nan nan nan nan nan 0.00 0.04 0.00 0.00 0.00 0.29 0.77 0.00 0.00 0.00 0.00 0.00 0.00 0.00 0.00 0.00 0.02 0.09 0.01 0.00 0.03 0.31 0.01 0.00 0.00 0.00 0.00 0.00 0.00 0.00 0.00 0.00 0.00 0.00 0.00 0.00 0.00
nan nan nan nan nan nan nan nan nan nan nan nan nan nan nan nan 0.00 0.00 0.02 0.00 nan 0.00 0.21 2.07 0.72 0.00 0.00 0.00 0.00 0.00 0.00 0.00 0.02 0.04 0.16 0.02 0.04 0.08 0.12 0.11 0.00 0.00 0.00 0.00 0.00 0.00 0.00 0.00 0.00 0.00 0.00 0.00 0.00 0.00
nan nan nan nan nan nan nan nan nan nan nan nan nan nan nan nan nan 0.00 0.00 nan nan 0.01 0.26 2.63 1.32 0.33 0.00 0.04 0.11 0.00 0.00 0.01 0.15 0.08 0.06 0.07 0.03 0.11 0.38 0.00 0.00 0.00 0.00 0.00 0.00 0.00 0.00 0.00 0.00 0.00 0.00 0.00 0.00 0.00
nan nan nan nan nan nan nan nan nan nan nan nan nan nan 0.00 0.00 0.00 0.00 nan nan 0.00 0.08 1.61 1.10 1.29 1.75 0.02 0.02 0.01 0.06 0.00 0.45 0.03 0.16 0.01 0.02 0.07 0.85 0.00 0.00 0.00 0.00 0.00 0.00 0.00 0.00 0.00 0.00 0.00 0.00 0.00 0.00 0.00 0.00
nan nan nan nan nan nan nan nan nan nan nan nan 0.00 0.02 0.46 0.00 nan nan 0.00 0.27 1.02 1.37 0.99 0.84 0.15 0.70 0.17 0.26 0.32 0.24 0.24 0.55 1.99 0.34 0.03 0.50 0.13 0.00 0.00 0.00 0.00 0.00 0.00 0.00 0.15 0.09 0.02 0.03 0.00 0.00 0.00 0.00 0.00 0.00
nan nan nan nan nan nan nan nan nan nan nan 0.20 1.05 0.96 0.07 nan 0.01 0.08 2.09 2.68 1.83 2.05 0.36 0.34 0.13 0.40 0.03 0.87 0.51 0.12 1.44 1.35 2.15 0.44 0.22 0.61 0.39 0.01 0.00 0.00 0.00 0.00 0.00 0.00 0.00 0.00 0.00 0.00 0.01 0.00 0.00 0.00 0.00 0.00
nan nan nan nan nan nan nan nan nan 0.00 0.41 0.41 0.31 0.08 0.22 1.03 2.53 3.17 3.22 1.45 0.95 1.07 0.78 0.50 0.25 0.10 0.40 0.08 0.86 1.43 1.34 1.26 1.51 0.18 1.06 0.71 0.16 0.02 0.01 0.00 0.00 0.00 0.00 0.00 0.00 0.00 0.00 0.00 0.00 0.00 0.01 0.09 0.02 0.03
nan nan nan nan nan nan nan nan nan nan nan 0.13 0.88 2.79 2.63 3.61 7.81 3.54 2.53 2.10 2.07 0.64 0.91 0.42 0.96 0.35 0.83 0.49 1.58 1.16 2.02 1.60 0.25 1.83 0.63 0.28 0.06 0.00 0.01 0.02 0.01 0.00 0.00 0.00 0.00 0.00 0.00 0.00 0.00 0.00 0.00 0.00 0.00 0.00
nan nan nan nan nan nan nan nan nan 0.00 0.01 1.39 3.76 8.02 2.87 2.85 1.16 0.99 0.60 0.71 0.43 0.66 0.62 0.50 0.82 0.91 0.89 1.63 0.93 2.57 0.72 0.43 2.27 1.51 0.72 0.31 0.09 0.05 0.02 0.02 0.02 0.06 0.02 0.04 0.41 0.27 0.09 0.06 0.01 0.00 0.00 0.00 0.00 0.00
nan nan nan nan nan nan nan nan nan 0.00 0.14 3.61 2.80 4.87 2.36 0.55 0.77 0.84 1.08 0.88 0.75 0.66 1.11 1.34 1.10 0.78 1.81 2.37 0.79 1.07 1.66 2.15 0.91 0.85 0.55 0.48 0.35 0.27 0.28 0.21 0.16 0.16 0.20 0.27 0.23 0.43 0.54 0.31 0.09 0.04 0.03 0.03 0.01 0.00
nan nan 0.00 nan nan nan nan nan 0.00 0.02 1.47 3.38 3.18 2.25 0.24 1.04 1.43 1.05 1.32 1.12 0.58 0.63 0.80 1.35 2.03 2.41 1.89 1.60 1.88 1.59 1.94 1.19 0.97 1.04 0.73 0.56 0.46 0.43 0.48 0.42 0.41 0.37 0.44 0.51 0.38 0.50 0.40 0.48 0.39 0.27 0.17 0.22 0.10 0.03
nan 0.02 nan nan nan nan nan 0.05 0.30 3.77 4.23 4.68 3.78 0.33 0.62 0.83 0.78 0.42 0.31 0.32 0.45 0.84 1.58 1.62 2.23 1.76 1.53 1.94 1.47 1.19 1.76 1.03 0.92 0.68 0.47 0.42 0.37 0.41 0.43 0.36 0.38 0.40 0.40 0.42 0.53 0.55 0.61 0.67 0.74 0.64 0.45 0.53 0.46 0.48
0.02 0.00 nan nan nan nan 0.33 0.81 3.36 5.09 5.03 1.83 1.27 0.70 0.19 0.14 0.25 0.17 0.26 0.33 0.56 0.68 1.00 2.18 1.10 1.91 1.58 1.28 0.95 1.09 0.91 0.88 0.52 0.38 0.38 0.37 0.34 0.34 0.33 0.36 0.37 0.34 0.34 0.43 0.43 0.57 0.68 0.60 0.52 0.56 0.43 0.45 0.47 0.49
0.09 0.00 nan nan 0.00 0.57 3.60 5.29 3.17 4.43 2.52 1.14 0.62 0.36 0.21 0.11 0.07 0.10 0.18 0.25 0.47 0.52 1.10 1.80 2.10 1.86 0.57 0.84 0.98 1.16 0.90 0.42 0.29 0.33 0.31 0.29 0.31 0.32 0.39 0.43 0.43 0.43 0.63 0.56 0.32 0.50 0.42 0.36 0.49 0.41 0.42 0.30 0.32 0.38
nan nan nan nan nan 2.95 6.66 5.34 2.43 2.31 2.48 1.19 0.77 0.85 0.46 0.36 0.18 0.22 0.35 0.46 0.69 1.80 2.07 2.77 0.95 0.60 0.59 0.74 0.56 0.52 0.46 0.32 0.19 0.17 0.21 0.17 0.17 0.14 0.21 0.27 0.34 0.37 0.39 0.29 0.36 nan 0.27 0.24 0.23 0.27 0.30 0.35 0.29 0.31
nan nan nan 0.11 1.59 1.57 2.66 3.51 2.57 2.04 1.54 1.05 1.30 0.73 0.96 1.03 1.30 1.99 2.02 0.82 2.15 2.77 2.20 0.75 0.67 0.70 0.59 0.51 0.34 0.28 0.32 0.25 0.22 0.12 0.15 0.24 0.16 0.18 0.15 0.20 0.17 0.05 0.04 0.10 0.09 0.11 0.10 0.12 0.19 0.12 0.10 0.11 0.14 0.13
0.62 nan 1.66 1.31 4.53 5.70 4.29 2.02 2.06 1.18 1.59 1.52 1.47 1.18 2.44 2.90 2.49 2.33 1.56 3.15 2.77 1.20 0.68 0.68 0.76 0.58 0.42 0.33 0.38 0.29 0.33 0.19 0.16 0.12 nan 0.06 0.08 0.10 0.10 0.13 0.21 0.49 0.46 0.54 0.11 0.04 0.01 0.00 0.01 0.05 0.08 0.08 0.08 0.07
nan 1.17 3.19 4.06 4.87 5.24 4.96 1.29 1.85 1.67 1.71 2.39 2.18 1.90 2.39 2.74 1.88 1.17 2.30 1.55 1.11 0.57 0.63 0.56 0.40 0.42 0.41 0.37 0.36 0.28 0.18 0.15 0.13 0.05 0.02 0.01 0.01 0.09 0.17 0.09 0.14 0.64 0.69 0.22 0.13 0.16 0.28 nan 0.00 0.01 0.00 0.02 0.13 0.18
nan 4.74 5.69 5.08 4.28 4.33 1.79 2.76 1.17 1.29 1.43 1.45 1.99 1.68 1.88 1.61 1.18 2.37 1.85 0.99 0.49 0.44 0.54 0.43 0.37 0.40 0.41 0.34 0.36 0.28 0.19 0.12 0.09 0.07 0.03 0.10 0.17 0.01 0.00 0.03 0.01 0.05 0.17 0.11 0.16 0.20 0.16 0.00 nan 0.06 0.05 0.29 0.35 0.37
6.44 9.03 4.91 7.30 2.92 2.35 1.49 1.17 1.65 1.10 1.35 1.24 1.41 1.49 1.73 1.20 1.89 2.19 1.23 1.14 0.78 0.52 0.57 0.45 0.31 0.29 0.21 0.21 0.19 0.14 0.04 0.11 0.12 0.16 0.13 0.10 0.10 0.14 0.35 0.17 0.04 0.06 0.13 0.69 0.50 0.36 0.37 0.29 0.25 0.34 0.35 0.44 0.54 0.64
8.97 3.74 5.17 1.71 2.16 1.12 0.81 1.00 0.97 1.06 0.90 1.26 1.31 1.20 1.52 1.45 2.02 2.36 0.74 0.99 0.45 0.53 0.46 0.33 0.21 0.14 0.09 0.10 0.11 0.12 0.10 0.11 0.15 0.23 0.21 0.19 0.18 0.63 0.98 0.48 0.44 0.21 0.16 0.24 0.54 0.69 0.61 0.39 0.41 0.41 0.48 0.45 nan 0.71
6.11 3.67 1.18 0.21 0.34 0.26 0.41 0.38 0.37 0.76 1.24 1.28 1.02 0.94 1.30 2.29 1.55 0.58 0.40 0.51 0.47 0.53 0.32 0.26 0.25 0.21 0.17 0.13 0.10 0.12 0.13 0.29 0.35 0.29 0.15 0.24 0.26 0.18 0.55 0.90 0.67 0.23 0.21 0.45 0.51 0.50 0.54 0.45 0.49 0.57 0.70 0.77 0.70 0.78
1.40 0.90 0.77 1.45 0.55 0.49 0.42 0.41 0.63 0.95 0.84 0.46 0.57 1.17 1.29 0.90 0.73 0.59 0.57 0.73 0.80 0.74 0.85 0.56 0.39 0.34 0.39 0.34 0.31 0.18 0.45 0.51 0.55 0.56 0.52 0.38 0.40 0.55 0.58 0.45 0.50 nan 0.49 0.55 0.56 0.60 0.63 0.61 0.76 0.73 0.72 0.88 0.76 0.60
0.88 0.62 0.71 1.31 0.83 0.84 1.05 0.94 0.68 0.35 0.09 0.52 0.76 0.58 0.49 0.44 0.80 0.80 0.58 0.62 0.84 0.88 0.79 0.64 0.73 0.96 0.81 0.61 0.63 0.83 0.74 0.70 0.69 0.54 0.37 0.48 0.52 0.74 0.81 0.75 0.92 0.85 0.75 0.76 nan nan 0.78 1.01 1.08 1.22 1.15 0.95 0.81 0.98
0.68 0.84 0.63 0.72 0.79 0.92 0.97 0.50 1.03 0.86 0.32 0.30 0.30 0.44 0.40 0.64 0.93 0.81 0.71 0.73 0.87 1.13 1.15 1.28 1.18 1.66 1.31 0.98 1.09 0.75 0.68 0.69 0.73 0.56 0.87 0.76 0.72 0.71 1.06 1.00 0.92 0.93 0.91 0.90 0.89 0.97 nan 1.11 nan 1.10 1.06 0.90 0.84 0.84
0.52 1.02 0.80 0.74 0.84 1.21 0.92 0.39 0.74 0.14 0.62 1.15 0.92 0.97 0.83 0.99 0.69 0.59 0.48 0.51 0.75 1.27 1.39 1.60 1.58 1.63 1.04 0.97 1.18 1.04 0.79 0.72 0.86 0.85 0.75 0.80 0.81 0.90 0.97 0.99 0.95 1.01 0.97 0.91 0.87 0.85 0.92 0.86 0.94 1.05 0.82 0.91 0.79 0.80
0.76 1.12 1.06 0.71 1.35 1.52 1.02 1.37 1.47 1.32 1.33 1.31 1.33 1.39 1.17 1.02 0.71 0.59 0.47 1.07 1.07 0.86 nan 0.98 0.68 0.56 0.59 0.61 0.61 0.67 nan 0.63 0.76 0.77 0.86 0.76 0.73 0.75 0.83 0.96 1.13 1.07 1.02 0.95 0.96 0.89 0.98 1.23 1.06 1.02 0.84 1.00 0.96 0.77
1.87 1.51 1.71 1.09 2.01 1.59 1.45 1.59 0.75 2.11 1.43 1.37 0.99 0.98 1.17 0.64 0.46 0.48 0.44 0.74 0.55 0.50 0.58 0.65 0.63 0.67 0.53 0.61 0.61 0.58 nan 0.72 0.93 nan nan nan nan nan 0.97 0.86 0.87 0.90 0.84 0.83 0.91 0.98 0.99 1.03 1.16 0.88 0.92 1.06 1.06 0.92
SL_Ratio
nan nan nan nan nan nan nan nan nan nan nan nan nan nan nan nan nan nan nan nan nan 4.3 nan nan nan nan nan nan 5.6 nan 5.0 nan nan 6.3 6.4 5.0 nan nan nan nan nan nan 2.7 6.5 7.5 5.4 5.4 nan nan nan nan nan nan nan
nan nan nan nan nan nan nan nan nan nan nan nan nan nan nan nan nan nan nan nan nan nan 5.9 nan nan nan nan nan nan nan 6.7 nan nan 5.7 6.5 6.3 6.6 6.7 7.2 7.6 nan nan nan nan nan 2.5 nan nan nan nan nan nan nan nan
nan nan nan nan nan nan nan nan nan nan nan nan nan nan nan nan nan nan nan nan nan nan 0.0 nan nan nan nan nan nan 6.3 nan nan nan nan nan 5.1 7.1 6.0 8.2 8.1 nan nan nan nan nan nan nan nan nan nan nan nan nan nan
nan nan nan nan nan nan nan nan nan nan nan nan nan nan nan nan nan nan nan nan nan nan 4.9 3.9 nan nan nan nan nan nan nan nan nan 2.6 4.1 6.5 7.4 5.7 6.5 7.5 6.7 nan nan nan nan nan nan nan nan nan nan nan nan nan
nan nan nan nan nan nan nan nan nan nan nan nan nan nan nan nan nan nan nan nan nan 3.3 4.2 4.9 nan nan nan nan nan nan nan nan nan 3.4 4.4 6.6 5.9 6.8 nan 6.1 6.5 nan nan nan nan nan nan nan nan nan nan nan nan nan
nan nan nan nan nan nan nan nan nan nan nan nan nan nan nan nan nan nan 2.8 nan nan nan 4.3 5.1 5.0 nan nan nan nan nan nan nan nan 5.7 6.1 5.4 nan 5.0 5.1 7.2 nan nan nan nan nan nan nan nan nan nan nan nan nan nan
nan nan nan nan nan nan nan nan nan nan nan nan nan nan nan nan nan nan 3.2 nan nan nan 3.3 3.9 4.4 nan nan nan nan nan nan nan 4.8 5.0 6.7 5.7 5.6 3.6 6.1 9.3 nan nan nan nan nan nan nan nan nan nan nan nan nan nan
nan nan nan nan nan nan nan nan nan nan nan nan nan nan nan nan nan nan nan nan nan 4.3 3.2 4.0 4.0 3.6 nan 4.9 5.3 nan nan 5.0 4.8 5.3 6.1 6.1 5.5 6.0 7.5 nan nan nan nan nan nan nan nan nan nan nan nan nan nan nan
nan nan nan nan nan nan nan nan nan nan nan nan nan nan nan nan nan nan nan nan nan 3.2 3.8 3.8 3.3 3.3 3.2 3.6 4.2 4.2 nan 6.5 4.9 5.5 5.7 5.9 6.2 6.4 5.7 nan nan nan nan nan nan nan nan nan nan nan nan nan nan nan
nan nan nan nan nan nan nan nan nan nan nan nan nan 4.2 3.5 2.5 nan nan 0.0 3.5 3.4 3.0 4.5 4.3 2.9 4.0 4.0 3.9 5.0 4.5 5.0 5.2 4.5 6.7 5.0 6.3 4.6 nan nan nan nan nan nan nan 3.1 3.0 2.5 2.7 nan nan nan nan nan nan
nan nan nan nan nan nan nan nan nan nan nan 4.0 4.1 4.3 4.0 nan 4.5 3.7 3.6 4.5 4.3 5.0 4.7 3.7 3.2 5.8 3.8 4.6 6.4 4.9 5.2 5.6 5.6 4.5 5.7 4.9 5.5 5.4 nan nan nan nan nan nan nan nan nan 2.5 2.7 5.0 nan nan 2.5 2.5
nan nan nan nan nan nan nan nan nan nan 3.2 3.9 4.8 3.6 3.5 4.1 4.0 4.6 4.6 4.5 5.0 4.9 5.5 5.9 5.0 5.4 5.5 5.2 5.7 5.5 5.6 5.3 6.5 4.4 6.0 6.0 4.2 2.8 2.5 2.5 nan nan nan nan nan 1.7 2.5 nan nan 3.0 2.8 3.5 2.9 2.9
nan nan nan nan nan nan nan nan nan nan nan 4.4 4.7 4.2 5.0 5.1 6.3 6.1 7.5 5.6 5.6 4.8 4.5 4.2 4.5 4.9 6.2 4.8 5.0 5.4 6.1 6.1 5.1 6.0 5.7 4.8 5.7 6.7 6.1 3.1 3.3 2.5 nan 10.0 nan nan nan 1.7 0.0 nan 3.6 nan nan nan
nan nan nan nan nan nan nan nan nan nan 3.8 4.6 4.5 6.0 6.2 6.8 6.4 5.9 5.9 4.7 4.9 4.1 5.0 5.3 5.0 5.6 5.6 6.1 5.5 5.8 6.5 6.0 7.1 7.7 7.2 4.9 7.0 7.6 7.3 6.9 6.5 6.2 6.0 6.5 4.6 4.6 4.8 4.7 3.2 3.0 2.5 nan nan nan
nan nan nan nan nan nan nan nan nan nan 3.6 4.4 4.4 6.7 6.5 5.7 4.8 5.3 3.9 4.3 5.0 5.2 5.8 5.7 5.3 6.0 5.1 5.9 6.0 5.5 7.2 7.2 7.7 7.3 6.0 5.6 7.8 7.7 8.0 8.0 8.2 8.0 7.8 7.2 7.0 6.6 6.6 6.4 6.3 7.2 6.2 5.1 4.2 3.8
nan nan nan nan nan nan nan nan nan 2.5 3.0 3.9 4.7 6.2 7.1 4.8 5.4 4.6 4.3 5.0 5.6 6.2 5.4 5.4 5.3 6.0 6.0 5.9 6.9 7.0 7.1 8.0 6.7 6.0 7.1 7.8 8.3 8.2 8.4 8.3 8.3 8.3 8.4 8.4 8.0 7.9 7.1 7.6 8.1 8.3 7.6 7.8 7.6 6.8
nan 2.5 nan nan nan nan nan 2.5 2.5 2.7 3.7 4.4 5.8 6.7 5.8 5.0 5.2 7.0 8.1 8.0 6.6 6.3 5.6 5.8 7.3 7.0 5.8 7.5 7.9 6.2 7.0 6.5 6.5 6.9 7.5 8.5 8.7 8.8 8.5 8.4 8.4 8.5 8.6 8.6 8.6 8.4 8.2 7.6 7.5 8.1 8.5 8.6 8.2 8.2
2.7 nan nan nan nan nan 2.5 2.5 3.4 3.9 5.7 5.2 7.3 5.8 8.4 8.2 8.2 8.5 8.3 7.9 7.5 6.4 6.1 5.3 5.6 7.1 8.0 8.1 8.0 7.4 7.1 5.8 6.4 7.4 8.2 8.8 9.0 8.8 8.6 9.0 8.8 8.7 8.3 7.8 8.0 7.8 7.8 8.2 8.3 8.2 8.2 8.0 8.0 8.0
2.5 2.5 nan nan nan 2.8 3.7 4.0 3.5 6.2 6.4 5.6 5.9 5.6 5.3 7.3 6.9 7.6 8.5 7.8 7.4 7.1 5.5 6.0 6.7 7.4 8.3 7.3 7.0 6.4 6.4 6.6 9.3 9.3 9.4 9.3 9.1 9.2 9.1 8.6 8.4 8.4 7.9 8.4 8.9 9.0 8.9 8.6 8.3 7.8 7.9 7.4 8.0 8.1
nan nan nan nan nan 4.2 5.0 5.2 3.6 5.4 7.2 7.1 5.0 5.7 5.3 5.3 6.0 6.4 6.7 7.0 6.7 5.0 5.9 7.0 9.5 11.0 10.6 9.4 7.9 7.8 7.5 7.9 8.6 9.6 9.8 9.9 9.8 8.9 8.7 8.3 8.5 8.9 8.2 8.2 7.7 nan 8.4 8.6 8.6 8.2 8.2 8.2 7.9 8.4
nan nan nan 2.7 3.3 3.7 4.0 5.2 6.5 5.5 6.4 7.2 6.4 5.9 7.1 5.0 5.6 5.4 5.4 5.5 5.6 6.2 6.8 9.4 10.4 10.1 9.9 10.1 10.1 8.9 8.8 8.8 9.4 9.4 9.6 8.0 10.0 7.5 6.6 6.3 4.4 9.9 9.6 10.3 9.1 9.3 7.7 9.1 8.9 7.5 6.9 6.1 6.9 6.1
3.8 nan 3.6 3.1 4.0 4.3 5.2 4.7 6.2 6.9 7.7 7.3 6.5 6.3 6.4 6.4 6.6 6.9 5.5 6.2 7.2 7.8 9.0 9.9 10.0 10.2 10.6 11.2 11.0 10.3 9.5 9.6 9.8 10.2 nan 9.9 5.8 4.4 4.6 4.0 4.5 5.0 4.7 4.6 4.7 5.7 8.6 10.0 3.8 3.9 4.5 4.3 4.0 4.5
nan 4.6 4.1 3.9 5.7 5.9 6.6 5.3 7.7 7.5 8.1 7.4 6.9 7.6 7.4 7.1 7.2 6.2 7.7 7.6 7.5 8.5 8.9 8.7 9.5 9.9 9.8 9.9 9.2 9.7 9.7 9.7 9.6 9.2 9.1 10.0 10.0 4.0 4.0 4.4 4.3 4.8 5.3 4.9 4.1 4.3 4.5 nan 3.8 4.1 4.4 4.3 5.0 5.5
nan 4.5 5.9 6.4 6.4 7.2 6.7 7.7 7.7 8.5 8.3 8.5 8.0 8.6 8.2 7.8 7.6 7.7 8.7 8.9 9.5 8.9 8.5 9.5 7.8 8.6 8.6 9.2 8.8 8.5 7.1 5.1 4.3 4.1 4.1 4.3 4.9 11.0 14.0 6.6 12.5 5.6 4.7 4.3 4.4 4.5 4.6 9.6 nan 4.5 5.8 6.6 6.4 6.1
5.4 5.8 6.3 6.5 7.2 8.2 8.9 9.6 8.7 9.5 9.6 9.3 9.1 8.9 8.6 9.1 8.5 8.3 9.6 9.2 8.4 8.9 8.3 7.8 7.8 8.3 9.2 9.6 9.0 8.0 9.3 4.5 4.5 5.6 4.6 4.1 4.5 4.9 5.3 5.2 9.0 8.5 4.5 4.9 5.6 6.0 5.6 5.7 6.0 6.2 6.9 7.4 8.1 8.2
6.2 6.9 6.9 8.1 8.3 9.3 9.8 10.0 10.0 9.7 9.7 9.7 9.7 9.7 9.0 8.8 8.7 8.5 10.1 8.5 9.6 8.8 8.5 8.1 8.4 7.6 8.4 8.0 8.0 6.3 5.0 4.0 4.5 5.2 5.5 4.6 4.9 5.3 5.8 6.9 7.3 5.9 5.3 5.4 5.6 7.1 6.8 7.0 8.4 9.1 8.6 8.3 nan 6.5
7.0 7.4 8.2 7.9 9.8 10.2 10.3 10.3 10.2 9.6 9.6 9.8 9.7 10.0 9.1 9.1 9.6 10.9 10.6 10.0 9.1 6.8 5.1 4.7 5.2 5.6 5.5 5.7 5.2 5.2 4.7 4.9 5.3 5.2 5.5 5.2 5.2 5.0 5.0 6.4 7.1 6.1 5.9 5.9 6.3 7.3 8.5 8.9 8.5 8.3 8.3 7.9 8.1 8.3
8.0 9.3 10.5 8.7 10.3 10.1 10.5 10.7 10.3 10.1 10.2 10.8 10.3 9.8 9.5 10.2 10.6 9.3 8.9 8.7 7.7 6.2 6.4 5.9 5.4 4.6 5.0 5.5 5.5 5.6 5.7 5.9 6.6 7.5 7.6 7.4 7.0 5.6 6.3 5.2 5.1 nan 5.1 5.4 6.3 7.3 8.3 8.7 9.2 9.1 9.0 8.9 9.0 8.3
8.9 9.1 9.4 9.7 10.2 9.9 9.7 9.7 10.0 10.9 12.5 10.3 9.7 10.2 10.7 10.8 8.7 8.7 9.0 7.1 6.7 7.6 8.1 7.8 6.7 6.5 7.1 7.5 7.0 6.9 7.1 7.8 9.2 10.1 10.6 9.3 8.4 6.6 6.7 7.3 7.5 7.9 7.6 8.5 nan nan 8.7 9.3 9.3 9.2 9.0 9.1 9.2 8.5
9.3 8.8 9.6 9.7 9.6 10.0 9.7 11.2 9.5 9.4 11.0 9.8 9.4 10.0 10.7 9.8 9.1 7.6 8.2 7.8 8.8 8.6 6.5 6.3 6.3 7.3 7.3 7.7 7.6 8.5 7.9 8.4 8.2 8.3 8.8 8.6 7.8 6.7 8.7 8.8 8.8 8.6 8.6 8.8 8.7 8.2 nan 8.3 nan 8.7 9.2 9.4 9.5 9.5
9.3 8.6 9.3 9.4 9.3 9.0 9.6 11.1 10.1 12.4 10.2 9.2 9.2 8.8 9.1 8.8 9.2 8.1 8.2 6.8 6.8 7.0 7.2 7.4 7.2 6.9 8.4 8.6 8.2 8.4 8.8 7.5 9.6 9.4 8.9 8.6 8.4 8.7 8.8 8.6 8.7 8.8 8.8 9.2 9.4 9.3 9.3 9.8 9.7 9.6 10.0 9.9 9.9 10.1
8.9 8.8 8.8 9.4 8.5 8.5 9.5 9.1 8.9 9.0 9.3 9.1 9.2 9.2 9.6 9.7 10.7 9.5 8.3 9.1 8.7 9.5 nan 7.5 8.4 7.4 6.4 6.6 6.7 6.9 nan 6.8 8.0 8.4 9.9 9.1 8.8 9.1 9.3 9.3 8.9 9.0 9.2 9.6 9.6 9.9 9.9 9.5 9.8 9.8 10.3 10.1 10.2 10.8
8.3 8.6 8.5 9.1 8.1 8.6 8.8 8.4 9.6 7.9 8.9 9.3 9.7 9.9 9.7 10.6 12.0 10.1 11.7 8.5 5.7 6.0 6.5 6.2 6.0 6.1 8.6 10.0 7.8 6.8 nan 7.3 9.3 nan nan nan nan nan 8.7 9.2 9.3 9.5 9.9 9.9 9.8 9.8 10.1 10.1 9.7 10.6 10.5 10.2 10.1 10.4